To NAV CANADA Home Page Login to a new session Search on AWWS site Feedback and Comments Disclaimer Vers la page française équivalente Tips FAQ What's new on the site To the Forecasts and Observations / NOTAM section To "File a Flight Plan" website Publications and other links Update of the User's profile FIC Telephone Numbers My Weather Data Folder Route Weather Data Regional Weather Data Local Weather Data To the Forecasts and Observations / NOTAM section
Request Generated 05/24/2016 at 13:41:40 UTC . Weather information available at that time is displayed.

METAR/TAF

OLD CROW/YT    

METAR CYOC 241300Z 26006KT 30SM VCSH SCT028 BKN036 OVC150 07/06 A2991
RMK SC4SC2AS2 SH N CLIMAT 13.3/4.4/3.0 MM SLP143=
LWIS CYOC 241200Z AUTO 25006KT 06/06 A2990=
LWIS CYOC 241100Z AUTO 28003KT 05/05 A2990=

*** REMARK        : Forecast period has ended; this was the last TAF issued
*** REMARQUE : La période de prévision est échue; ceci était le dernier TAF qui a été émis
TAF AMD CYOC 232104Z 2321/2401 VRB03KT P6SM BKN025 TEMPO 2321/2401
P6SM -DZ BKN012
RMK NXT FCST WILL BE ISSUED AT 241445Z=
Your time UTC time
Weather data provided by Environment Canada and NAV CANADA